OpenBCM V1.07b12 (Linux)

Packet Radio Mailbox

DB0FHN

[JN59NK Nuernberg]

 Login: GUEST





  
LU1HVK > KEP      10.01.20 17:03l 243 Lines 12025 Bytes #999 (0) @ WW
BID : 38719_LU1HVK
Read: DJ6UX GUEST
Subj: TLE 02 11
Path: DB0FHN<OE2XZR<OE5XBL<F1OYP<IZ3LSV<ED1ZAC<LU4ECL<JE7YGF<JH4XSY<N3HYM<
      XE1FH<LU3WAM<LU9HGS<LU1HVK
Sent: 200110/1552Z 38719@LU1HVK.2594.CBA.ARG.SA LinBPQ6.0.19

                         _    _   _ _ _   ___     ___  __
                        | |  | | | / | | | \ \   / / |/ /
                        | |  | | | | | |_| |\ \ / /| ' /
                        | |__| |_| | |  _  | \ V / | . \
                        |_____\___/|_|_| |_|  \_/  |_|\_\

     BBS/NODO - CORDOBA (LEONES-FF87UH) - LU1HVK-4 NODO - LU1HVK-3 APRS

+----------------------------------------------------------------------------+
OSCAR 7
1  7530U 74089B   19305.85897198 -.00000041  00000-0  26427-4 0  9997
2  7530 101.7644 272.2119 0012498  83.8745  29.4345 12.53640530 57584
OSCAR 11 (UoSAT 2)
1 14781U 84021B   19305.64763479  .00000087  00000-0  16828-4 0  9994
2 14781  97.6032 323.8789 0007364 226.2653 133.7952 14.83116719918915
OSCAR 19 (LUSAT)
1 20442U 90005G   19304.78421218  .00000011  00000-0  20231-4 0  9990
2 20442  98.6618 246.6303 0012795 109.3533 250.9035 14.32936387555728
EYESAT A
1 22825U 93061C   19305.86452933 -.00000002  00000-0  17191-4 0  9992
2 22825  98.9146 297.6818 0007856 328.9809  31.0908 14.30069997361418
ITAMSAT
1 22826U 93061D   19305.55464947 -.00000016  00000-0  11625-4 0  9998
2 22826  98.9086 297.3389 0008224 317.3325  42.7217 14.30404107361572
RADIO ROSTO
1 23439U 94085A   19305.83327231 -.00000040  00000-0  72151-4 0  9999
2 23439  64.8154 255.9624 0145311  86.6128 275.1405 11.27568556 23409
JAS 2
1 24278U 96046B   19305.82842869 -.00000016  00000-0  22380-4 0  9990
2 24278  98.5585  80.9031 0349448 247.0303 109.3616 13.53094348146217
TECHSAT 1B
1 25397U 98043D   19304.90999933  .00000001  00000-0  19647-4 0  9990
2 25397  98.7007 243.4785 0001823  42.3602 317.7717 14.23673267107117
ISS (ZARYA)
1 25544U 98067A   19306.09928748 -.00005490  00000-0 -87409-4 0  9998
2 25544  51.6446  37.4621 0005928 217.7219 201.9683 15.50242909196657
PCSAT
1 26931U 01043C   19305.48341422 -.00000003  00000-0  30720-4 0  9995
2 26931  67.0532  13.2694 0007491 266.7979  93.2265 14.30557052944396
SAUDISAT 1C
1 27607U 02058C   19305.63717160  .00000032  00000-0  25345-4 0  9994
2 27607  64.5562 353.9576 0073726 230.0222 129.4392 14.75585003907099
CUTE-1
1 27844U 03031E   19305.85788657  .00000049  00000-0  41951-4 0  9991
2 27844  98.6850 312.0407 0009857   3.5761 356.5486 14.22202752847644
CUBESAT XI 4
1 27848U 03031J   19305.60741202  .00000031  00000-0  33960-4 0  9995
2 27848  98.6923 312.3210 0009988  16.0968 344.0525 14.21794619847459
MOZHAYETS 4
1 27939U 03042A   19305.73084598  .00000143  00000-0  34159-4 0  9995
2 27939  98.0605  79.0527 0012868   3.3310 356.7983 14.66813608860485
CUBESAT XI 5
1 28895U 05043F   19305.82146311  .00000163  00000-0  40135-4 0  9995
2 28895  97.9792  84.0477 0015475 282.7885  77.1589 14.63705860747396
CUTE-1.7+APD II
1 32785U 08021C   19305.89500781  .00000225  00000-0  29907-4 0  9992
2 32785  97.5573 299.2395 0013367 164.9100 195.2519 14.88366475623941
DELFI C3
1 32789U 08021G   19305.72928446  .00001443  00000-0  99691-4 0  9990
2 32789  97.4497 351.1974 0012608  27.3049 332.8839 15.07222785627452
SEEDS
1 32791U 08021J   19304.74381902  .00000449  00000-0  50773-4 0  9997
2 32791  97.5321 304.2319 0014197 142.8521 217.3683 14.90899061624232
YUBELEINY
1 32953U 08025A   19305.82326168  .00000020  00000-0  75656-4 0  9996
2 32953  82.5038  60.0939 0019586 189.9460 170.1236 12.43092056519224
PRISM (HITOMI)
1 33493U 09002B   19305.84442859  .00000100  00000-0  14269-4 0  9992
2 33493  98.1244 231.9723 0016323  91.0485 269.2606 14.96786183585519
KKS-1 (KISEKI)
1 33499U 09002H   19305.84978494  .00000125  00000-0  26417-4 0  9992
2 33499  98.3386 148.8423 0010066 128.2293 231.9822 14.75474890579307
SWISSCUBE
1 35932U 09051B   19305.77457120  .00000154  00000-0  45788-4 0  9994
2 35932  98.5995 115.8443 0008669 106.4352 253.7798 14.56324435536580
BEESAT
1 35933U 09051C   19305.76942878  .00000114  00000-0  36735-4 0  9991
2 35933  98.6011 117.6525 0006799 117.1007 243.0884 14.56408453536693
ITUPSAT 1
1 35935U 09051E   19305.42459683  .00000086  00000-0  30925-4 0  9996
2 35935  98.6119 117.5238 0009134 117.2871 242.9257 14.55562911536387
XIWANG-1 (HOPE-1)
1 36122U 09072B   19304.71996431 -.00000028  00000-0  37690-4 0  9999
2 36122 100.0797 300.7819 0007979  39.2424 320.9263 13.16351903474646
TISAT 1
1 36799U 10035E   19305.43301186  .00000353  00000-0  41681-4 0  9992
2 36799  98.1726 102.2429 0012305   7.2328 352.9065 14.91191185504999
JUGNU
1 37839U 11058B   19304.85558101  .00000343  00000-0  41295-4 0  9990
2 37839  19.9606 235.1221 0018845  17.7554  17.1650 14.12663235416390
SRMSAT
1 37841U 11058D   19305.33110544  .00000309  00000-0  24670-4 0  9992
2 37841  19.9724 291.8213 0011666 246.2411 250.8530 14.10642034415865
M-CUBED/EXP-1 PRIME
1 37855U 11061F   19305.83742498  .00002406  00000-0  12659-3 0  9998
2 37855 101.7201 271.3505 0172915  33.1566 328.0342 15.05718190437265
HORYU 2
1 38340U 12025D   19305.65660159  .00000209  00000-0  38483-4 0  9995
2 38340  98.3146 348.2262 0012459  55.2881 304.9499 14.75768006401218
STRAND 1
1 39090U 13009E   19305.11638936  .00000043  00000-0  30325-4 0  9993
2 39090  98.4742 148.7250 0008101 244.1965 115.8385 14.35103107349816
SOMP
1 39134U 13015E   19304.80514740  .00002057  00000-0  10162-3 0  9993
2 39134  64.8637 302.6096 0037234 281.9595  77.7359 15.20450987361133
BEESAT 3
1 39135U 13015F   19305.49599860  .00001208  00000-0  68599-4 0  9991
2 39135  64.8671 320.5995 0038601 287.2034  72.4868 15.17696147360856
BEESAT 2
1 39136U 13015G   19305.12340358  .00001151  00000-0  67272-4 0  9992
2 39136  64.8684 326.0189 0029717 292.2331  67.5643 15.17110154360711
CUBEBUG 1
1 39153U 13018D   19305.80543341  .00000253  00000-0  39857-4 0  9996
2 39153  97.9815  43.1892 0018216 115.9104 244.3988 14.80616979351950
ZACUBE
1 39417U 13066B   19305.56225941  .00000243  00000-0  36928-4 0  9993
2 39417  97.5623 311.4269 0057750 309.4686  50.1427 14.81170890321154
TRITON 1
1 39427U 13066M   19305.85842331  .00000232  00000-0  44503-4 0  9990
2 39427  97.6942 274.9465 0115217  89.5172 271.9235 14.67898351318317
GOMX 1
1 39430U 13066Q   19305.73079984  .00000150  00000-0  36066-4 0  9991
2 39430  97.7625 253.4296 0150802 184.8810 175.0932 14.59302224316441
HUMSAT D
1 39433U 13066T   19305.66893675  .00000676  00000-0  71040-4 0  9991
2 39433  97.5383 347.5117 0030201 204.3610 155.6184 14.92287682323354
CUBEBUG 2
1 39440U 13066AA  19304.80420132  .00000284  00000-0  46314-4 0  9999
2 39440  97.6112 295.3244 0080427   7.1290 353.1044 14.75907872319909
FUNCUBE 1
1 39444U 13066AE  19305.82495898  .00000282  00000-0  41033-4 0  9998
2 39444  97.5591 313.7467 0056743 301.7164  57.8526 14.82001240320099
UWE-3
1 39446U 13066AG  19305.59205382  .00000252  00000-0  40123-4 0  9997
2 39446  97.5862 303.2167 0069438 337.7565  22.0638 14.78443344319346
SPROUT
1 39770U 14029E   19305.79128696  .00000846  00000-0  99400-4 0  9992
2 39770  97.8894  48.2500 0009143   6.5839 353.5528 14.87483756295066
UNISAT 6
1 40012U 14033C   19305.44357133  .00000207  00000-0  38086-4 0  9994
2 40012  97.7367 166.0704 0058937  21.0789 339.2830 14.74025973288683
DUCHIFAT 1
1 40021U 14033M   19305.74120325  .00000620  00000-0  68964-4 0  9995
2 40021  97.9269 230.7958 0012246 327.5989  32.4475 14.90723001291816
QB50P1
1 40025U 14033R   19305.78362470  .00000361  00000-0  44382-4 0  9992
2 40025  97.9054 225.2351 0011943 338.4048  21.6663 14.89011127291577
CHUBUSAT 1
1 40300U 14070C   19305.81449494  .00000816  00000-0  38369-4 0  9998
2 40300  97.3165  16.4780 0018928 300.0417 198.9069 15.22230405276729
NUDT-PHONESAT
1 40900U 15049B   19305.77943293  .00002651  00000-0  11476-3 0  9990
2 40900  97.4365 313.8093 0014275  69.4690  16.4071 15.23217739228370
ZDPS 2A
1 40901U 15049C   19305.74852652  .00001108  00000-0  57834-4 0  9991
2 40901  97.4615 309.6327 0015148  89.1473 356.3092 15.17905546227876
ZDPS 2B
1 40902U 15049D   19305.72237295  .00001618  00000-0  83221-4 0  9995
2 40902  97.4571 306.9931 0015108  86.7738   0.2565 15.17784271227849
XW-2A
1 40903U 15049E   19305.79230793  .00002532  00000-0  60732-4 0  9997
2 40903  97.3217 349.2367 0013962  19.6312  71.0896 15.42267309231224
KAITUO 1A
1 40904U 15049F   19305.75518042  .00000609  00000-0  35586-4 0  9992
2 40904  97.4710 305.4735 0016179  95.0530 350.9363 15.15482040227606
OBJECT G
1 40905U 15049G   19305.73472813  .00000686  00000-0  40853-4 0  9994
2 40905  97.4762 302.8648 0017247  91.7512 355.3046 15.14379662227463
XW-2C
1 40906U 15049H   19305.72776766  .00000959  00000-0  53553-4 0  9992
2 40906  97.4716 305.5936 0016449  87.6761 358.6042 15.15806641227607
XW-2D
1 40907U 15049J   19305.74827933  .00000721  00000-0  40881-4 0  9995
2 40907  97.4696 305.2972 0015836  85.2226 329.0645 15.16003742227626
LILACSAT 2
1 40908U 15049K   19305.83015341  .00000213  00000-0  15346-4 0  9992
2 40908  97.4836 304.0456 0017520  91.5779  30.2733 15.13878383227405
XW-2F
1 40910U 15049M   19305.71748892  .00001330  00000-0  69543-4 0  9995
2 40910  97.4647 307.4761 0016399  77.7873  10.2588 15.17505614227648
XW-2B
1 40911U 15049N   19305.72714730  .00001067  00000-0  58999-4 0  9991
2 40911  97.4717 305.9474 0015717  85.6616   0.6767 15.15935316227519
KAITUO 1B
1 40912U 15049P   19305.73809297  .00001592  00000-0  77251-4 0  9991
2 40912  97.4498 311.3518 0016384  60.7207  25.8642 15.19844630227970
TIANWANG 1C (TW-1C)
1 40926U 15051B   19305.77558405  .00017968  00000-0  23609-3 0  9996
2 40926  97.1185 351.8794 0006195 213.0279 213.8166 15.58536775231337
TIANWANG 1B (TW-1B)
1 40927U 15051C   19305.81859142  .00016237  00000-0  22812-3 0  9997
2 40927  97.1217 351.0109 0006046 227.5240 221.5842 15.56758475231179
